Weather in Belichi

Ukraine / Lviv District     49°27′11″N   22°51′50″E
temp.,
°C
wind,
m/s
gust,
m/s
humid.,
%
clouds,
%
prec.,
mm/h
press.,
hPa
HPBL,
m
4 march, thu
thu423:00+3ssw412868 0.0 1024263
02:00+4sw616824 0.0 1023455
05:00+4sw5138232 0.0 1020342
08:00+3sw5138157 0.0 1019319
11:00+8sw5116474 0.0 1017664
14:00+10wsw5105936 0.0 10141152
17:00+7wsw497668 0.0 1013624
20:00+5wsw398484 0.0 1013371
5 march, fri
fri523:00+5wsw3891100 1.2 1013361
02:00+4nnw0199100 2.9 101247
05:00+3n1299100 3.1 1012120
08:000n2598100 7.4 1012326
11:000nne2598100 3.6 1015365
14:00−1nne4796100 6.1 1016574
17:00−1nne4796100 2.0 1018593
20:00−4n278599 2.5 1022200
6 march, sat
sat623:00−6nnw238835 0.0 102559
02:00−7w128218 0.0 102722
05:00−7wsw22880 0.0 102727
08:00−6wsw239211 0.0 1030147
11:00−2nw477363 0.3 10311306
14:00−1nw366681 0.6 10311367
17:00−2nw3569100 0.2 10311301
20:00−5wsw128375 0.2 103224
7 march, sun
sun723:00−6sw23840 0.0 103289
02:00−6sw38800 0.0 1030172
05:00−4sw614740 0.0 1028524
08:00−3sw614710 0.0 1027496
11:00+1wsw611600 0.0 10251014
14:00+2wsw610600 0.0 10231083
17:00+1wsw611650 0.0 1020931
20:00−1sw513730 0.0 1020408
8 march, mon
mon823:00−2wsw310790 0.0 1020239
02:00−3sw26830 0.0 1019138
05:00−4sw278465 0.0 1017152
08:00−3sw278178 0.0 1017262
11:00+1w477598 0.0 1017965
14:00+1w587599 0.1 10171199
17:000wnw488398 0.1 1017809
20:00−2nw399894 1.4 1019619